EHI
0 0 0 0 0 0 0 0 0 0 0 0 0 0 0 0 0 0 0 0 0 0 0 0 0 0 0 0 0 0 0 0 0 0 0 0 0 0 0 0 0 0 0 0
0 0 0 0 0 0 0 0 0 0 0 0 0 0 0 0 0 0 0 1 1 0 0 0 0 0 0 0 0 0 0 0 0 0 0 0 0 0 0 0 0 0 0 0
0 0 0 0 0 0 0 0 0 0 0 0 0 0 0 0 0 0 0 1 1 0 0 0 0 0 0 0 0 0 0 0 0 0 0 0 0 0 0 0 0 0 0 0
0 0 0 0 0 0 0 0 0 0 0 0 0 0 0 0 0 0 0 1 1 0 0 0 0 0 0 0 0 0 0 0 0 0 0 0 0 0 0 0 0 0 0 0
0 0 0 0 0 0 0 0 0 0 0 0 0 0 0 0 0 0 0 0 0 0 0 0 0 0 0 0 0 0 0 0 0 0 0 0 0 0 0 0 0 0 0 0
0 0 0 0 0 0 0 0 0 0 0 0 0 0 0 0 0 0 0 0 0 0 0 0 0 0 0 0 0 0 0 0 0 0 0 0 0 0 0 0 0 0 0 0
0 0 0 0 0 0 0 0 0 0 0 0 0 0 0 0 0 0 0 0 0 0 0 0 0 0 0 0 0 0 0 0 0 0 0 0 0 0 0 0 0 0 0 0
0 0 0 0 0 0 0 0 0 0 0 0 0 0 0 0 0 0 0 0 0 0 0 0 0 0 0 0 0 0 0 0 0 0 0 0 0 0 0 0 0 0 0 0
0 0 0 0 0 0 0 0 0 0 0 0 0 0 0 0 0 0 0 0 0 0 0 0 0 0 0 0 0 0 0 0 0 0 0 0 0 0 0 0 0 0 0 0
0 0 0 0 0 0 0 0 0 0 0 0 0 0 0 0 0 0 0 0 0 0 0 0 0 0 0 0 0 0 0 0 0 0 0 0 0 0 0 0 0 0 0 0
0 0 0 0 0 0 0 0 0 0 0 0 0 0 0 0 0 0 0 0 0 0 0 0 0 0 0 0 0 0 0 0 0 0 0 0 0 0 0 0 0 0 0 0
0 0 0 0 0 0 0 0 0 0 0 0 0 0 0 0 0 0 0 0 0 0 0 0 0 0 0 0 0 0 0 0 0 0 0 0 0 0 0 0 0 0 0 0
0 0 0 0 0 0 0 0 0 0 0 0 0 0 0 0 0 0 0 0 0 0 0 0 0 0 0 0 0 0 0 0 0 0 0 0 0 0 0 0 0 0 0 0
0 0 0 0 0 0 0 0 0 0 0 0 0 0 0 0 0 0 0 0 0 0 0 0 0 0 0 0 0 0 0 0 0 0 0 0 0 0 0 0 0 0 0 0
0 0 0 0 0 0 0 0 0 0 0 0 0 0 0 0 0 0 0 0 0 0 0 0 0 0 0 0 0 0 0 0 0 0 0 0 0 0 0 0 0 0 0 0
0 0 0 0 0 0 0 0 0 0 0 0 0 0 0 0 0 0 0 0 0 0 0 0 0 0 0 0 0 0 0 0 0 0 0 0 0 0 0 0 0 0 0 0
0 0 0 0 0 0 0 0 0 0 0 0 0 0 0 0 0 0 0 0 0 0 0 0 0 0 0 0 0 0 0 0 0 0 0 0 0 0 0 0 0 0 0 0
0 0 0 0 0 0 0 0 0 0 0 0 0 0 0 0 0 0 0 0 0 0 0 0 0 0 0 0 0 0 0 0 0 0 0 0 0 0 0 0 0 0 0 0
0 0 0 0 0 0 0 0 0 0 0 0 0 0 0 0 0 0 0 0 0 0 0 0 0 0 0 0 0 0 0 0 0 0 0 0 0 0 0 0 0 0 0 0
0 0 0 0 0 0 0 0 0 0 0 0 0 0 0 0 0 0 0 0 0 0 0 0 0 0 0 0 0 0 0 0 0 0 0 0 0 0 0 0 0 0 0 0
0 0 0 0 0 0 0 0 0 0 0 0 0 0 0 0 0 0 0 0 0 0 0 0 0 0 0 0 0 0 0 0 0 0 0 0 0 0 0 0 0 0 0 0
0 0 0 0 0 0 0 0 0 0 0 0 0 0 0 0 0 0 0 0 0 0 0 0 0 0 0 0 0 0 0 0 0 0 0 0 0 0 0 0 0 0 0 0
0 0 0 0 0 0 0 0 0 0 0 0 0 0 0 0 0 0 0 0 0 0 0 0 0 0 0 0 0 0 0 0 0 0 0 0 0 0 0 0 0 0 0 0
0 0 0 0 0 0 0 0 0 0 0 0 0 0 0 0 0 0 0 0 0 0 0 0 0 0 0 0 0 0 0 0 0 0 0 0 0 0 0 0 0 0 0 0
0 0 0 0 0 0 0 0 0 0 0 0 0 0 0 0 0 0 0 0 0 0 0 0 0 0 0 0 0 0 0 0 0 0 0 0 0 0 0 0 0 0 0 0
0 0 0 0 0 0 0 0 0 0 0 0 0 0 0 0 0 0 0 0 0 0 0 0 0 0 0 0 0 0 0 0 0 0 0 0 0 0 0 0 0 0 0 0
0 0 0 0 0 0 0 0 0 0 0 0 0 0 0 0 0 0 0 0 0 0 0 0 0 0 0 0 0 0 0 0 0 0 0 0 0 0 0 0 0 0 0 0
Wind_Speed
3 3 2 1 2 2 4 5 6 6 5 5 6 6 5 6 6 6 5 5 5 5 4 3 3 3 3 3 2 2 3 2 2 1 1 2 2 2 2 3 3 3 3 3
1 1 1 1 2 1 2 2 3 2 3 2 4 5 5 6 7 6 6 5 5 5 5 4 4 4 3 3 2 2 2 2 2 2 2 2 2 2 3 3 3 3 3 3
2 3 2 3 4 3 2 2 4 5 5 5 5 6 7 7 7 7 6 5 5 5 5 4 3 4 4 3 3 3 2 2 2 2 2 1 2 2 3 3 3 3 3 3
1 1 3 6 2 3 3 2 2 2 3 5 5 4 3 4 6 6 6 5 5 4 4 3 3 3 3 3 3 3 3 2 2 2 2 2 2 2 2 2 2 2 3 3
3 1 5 4 2 3 3 2 2 4 5 4 6 4 1 2 4 5 5 5 4 3 3 4 4 4 4 3 3 3 2 2 1 2 2 2 2 1 1 1 2 2 2 3
3 2 5 6 2 3 3 3 3 6 8 7 6 3 4 4 4 4 4 4 4 3 3 4 4 4 4 3 3 2 2 2 1 1 2 1 1 1 1 1 1 2 2 3
3 3 6 5 1 3 2 6 4 7 8 8 6 5 4 6 5 5 5 5 5 5 4 3 4 5 4 3 3 2 2 2 2 2 1 1 1 1 1 1 2 2 2 3
4 3 7 2 4 5 6 2 4 6 6 6 4 4 6 6 6 6 5 5 5 5 4 3 4 5 4 3 2 2 3 3 2 2 1 1 1 1 1 1 2 2 2 3
7 7 5 2 3 2 3 3 4 5 5 7 6 6 6 5 6 5 6 5 4 5 4 3 3 4 4 2 2 3 3 2 2 1 1 1 1 1 1 1 1 1 1 2
2 4 3 2 1 1 2 3 4 6 7 7 7 7 6 6 5 5 5 5 4 5 4 3 3 3 4 3 3 3 3 2 1 1 1 1 1 0 0 1 1 1 1 2
3 3 1 1 1 2 3 5 7 6 5 7 9 7 6 6 6 5 5 4 5 5 4 3 3 3 3 3 4 3 2 1 1 0 0 1 1 1 1 2 3 3 2 2
7 8 6 4 3 4 6 6 7 7 6 5 7 8 7 6 5 5 5 4 4 4 4 4 3 3 2 3 4 4 2 1 1 1 0 1 1 2 3 3 5 5 6 5
5 4 4 4 4 4 6 6 6 7 8 7 6 6 7 6 5 5 5 5 5 5 4 4 4 3 3 3 4 4 3 2 1 1 1 1 1 1 3 4 4 4 5 6
5 6 4 4 5 5 6 7 6 6 6 7 6 6 6 5 5 6 6 6 5 5 4 5 4 4 4 4 4 3 3 3 2 2 2 2 2 2 2 3 4 4 4 6
5 5 6 6 6 6 6 7 7 6 6 5 5 6 7 7 6 6 5 5 5 4 4 4 4 4 3 4 4 4 3 2 2 2 2 2 2 3 3 3 4 4 4 5
5 6 8 9 9 8 7 7 7 7 6 6 6 6 7 6 5 4 4 6 6 6 5 5 5 5 4 4 4 3 3 4 3 2 2 2 2 3 3 3 4 4 5 5
9 8 8 9 9 8 8 8 8 8 7 7 7 7 6 6 5 4 4 5 6 6 5 5 6 5 4 5 5 3 3 3 4 3 3 3 3 4 4 4 5 5 6 6
11 11 11 12 11 10 8 7 7 8 8 8 7 7 7 7 7 6 5 4 4 3 4 6 5 5 4 5 4 4 3 3 3 3 3 3 4 4 4 4 5 6 6 6
8 9 9 10 10 10 9 8 7 7 7 8 8 8 7 7 6 6 5 5 5 5 5 5 7 5 5 5 5 3 4 4 4 3 4 4 4 4 4 4 5 6 6 6
8 9 9 9 9 8 8 7 7 7 7 8 8 7 6 6 6 6 6 5 6 6 5 5 5 5 5 5 6 4 4 5 4 4 4 4 4 5 5 5 6 6 6 6
10 10 10 10 8 8 8 8 8 8 7 8 8 8 7 6 5 6 5 5 5 5 5 6 5 5 5 5 5 4 4 4 4 4 4 4 5 5 5 6 6 6 6 6
9 9 10 9 9 7 6 6 7 8 8 7 7 7 6 5 5 4 5 5 5 5 4 4 4 6 6 5 4 4 5 5 5 4 5 5 5 6 6 7 7 7 7 7
8 8 9 9 9 7 6 6 7 8 8 8 8 8 7 6 5 5 5 4 4 6 5 4 6 8 8 5 4 5 5 6 6 5 5 5 6 6 6 7 7 7 7 7
8 8 8 7 7 7 6 6 6 6 6 6 7 7 6 5 4 5 4 4 5 6 5 6 8 9 7 5 4 5 5 6 6 6 6 6 6 6 6 6 7 7 7 8
8 8 8 9 8 6 6 6 5 5 5 4 4 5 5 5 5 4 4 5 6 6 4 6 8 8 6 5 5 5 5 6 6 5 5 5 6 6 6 6 6 6 6 6
7 7 7 7 6 5 5 5 5 4 4 3 3 3 4 3 4 3 3 4 5 5 5 4 4 5 5 5 5 6 5 5 5 5 5 5 6 6 6 6 7 6 6 6
7 6 5 4 3 5 5 5 5 5 5 5 4 4 4 4 4 4 4 4 4 4 4 3 3 4 4 4 5 5 5 5 5 5 5 5 5 5 5 6 5 5 5 5
Wind_Direction
233 240 197 219 240 183 174 186 187 221 211 219 192 182 167 148 142 140 145 153 158 161 161 156 150 145 146 139 130 120 114 108 108 84 67 59 42 27 18 19 24 19 21 22
323 290 214 244 252 200 191 182 189 192 239 192 145 136 145 151 155 157 159 161 164 164 162 164 167 161 154 149 143 129 121 126 117 96 77 66 48 36 32 24 20 24 26 23
266 295 340 276 244 197 194 200 176 206 218 150 147 164 171 169 168 169 168 165 169 174 170 167 167 161 161 157 146 133 128 128 126 117 95 63 60 56 40 22 21 20 16 22
160 9 247 252 255 183 172 228 206 188 164 163 159 156 157 163 168 171 169 166 170 171 163 159 152 144 141 138 141 136 130 131 134 124 103 77 66 55 33 21 17 6 5 2
128 207 276 285 225 166 162 251 190 160 149 129 116 96 93 168 167 173 172 166 166 169 160 151 147 144 134 129 130 125 131 144 147 130 113 93 72 40 17 18 12 3 353 356
139 184 242 250 241 167 123 277 198 160 158 151 134 154 220 175 149 146 144 141 137 132 127 141 145 139 132 134 131 140 154 154 139 121 119 107 87 40 11 14 5 6 8 357
166 215 260 257 210 131 178 247 181 164 163 163 177 192 168 142 140 144 138 135 132 129 129 142 138 133 135 136 152 165 140 119 112 104 118 124 92 52 43 31 26 15 7 354
159 198 253 252 135 181 216 193 145 157 161 160 147 121 125 134 137 136 132 131 136 133 129 131 133 133 134 149 160 133 120 112 99 85 84 100 87 43 37 49 36 8 0 348
185 210 240 238 210 219 163 152 157 154 152 141 136 138 138 141 142 144 144 141 137 135 128 125 138 141 145 163 137 123 117 116 103 75 62 93 112 77 27 36 25 337 341 330
223 264 265 269 258 148 159 156 147 143 143 143 144 146 142 144 145 146 142 140 134 133 132 138 151 152 161 158 137 127 127 128 120 92 34 32 56 168 226 277 295 303 306 301
234 254 265 289 213 158 106 109 113 116 132 146 140 144 148 149 151 151 145 141 143 147 152 161 158 161 166 153 141 136 137 138 126 114 60 354 338 281 245 242 226 236 256 256
215 209 184 212 190 149 131 133 135 127 125 135 144 145 145 148 151 152 150 146 148 152 158 166 163 173 178 161 149 146 150 168 188 209 260 281 311 323 291 260 275 258 244 243
200 175 167 161 149 144 140 142 140 138 143 144 142 142 144 147 153 153 154 158 166 169 171 167 165 179 190 171 158 164 182 198 203 217 235 254 263 291 313 320 308 287 275 265
161 131 130 157 163 152 140 135 127 123 130 138 140 141 142 143 151 161 172 178 173 168 169 167 171 194 197 172 169 183 195 205 208 224 234 243 252 255 260 285 307 311 301 281
175 161 157 147 134 129 128 126 126 130 133 135 142 148 152 158 168 177 177 167 158 163 173 174 182 207 195 173 178 191 198 213 221 231 236 243 252 258 263 267 274 284 298 302
151 129 134 140 147 146 141 145 151 160 158 156 158 165 167 167 169 169 168 162 163 180 189 186 200 211 192 182 187 199 215 229 228 230 248 259 262 266 274 278 281 282 284 286
143 154 158 160 163 163 167 168 168 170 167 167 172 167 156 152 154 167 178 178 180 191 193 194 208 210 192 187 192 207 222 235 235 234 243 252 259 263 268 272 276 279 279 274
174 173 169 167 168 170 172 169 168 169 172 175 163 154 157 164 176 187 187 174 172 194 211 209 208 203 200 198 197 205 215 226 231 238 248 256 262 263 265 268 273 278 285 288
162 162 164 165 165 165 168 170 172 173 168 160 159 168 174 180 184 183 172 169 184 210 226 212 204 204 209 212 203 204 216 228 236 242 249 260 266 267 267 271 277 280 283 286
158 157 157 157 157 158 165 167 163 164 166 162 162 167 178 188 183 176 174 192 210 212 206 197 195 203 213 217 208 210 220 229 237 243 246 252 261 269 271 273 277 281 282 281
159 157 157 158 161 164 166 163 162 169 169 166 170 180 188 190 180 172 176 213 236 212 204 205 204 211 216 215 211 214 222 230 236 241 247 256 265 272 273 275 276 278 280 281
159 159 161 160 158 164 167 165 166 168 165 170 177 178 177 184 185 185 201 216 227 202 193 202 210 216 216 211 210 216 228 235 240 243 246 252 258 265 270 274 277 278 277 277
157 158 158 160 163 163 156 163 168 168 172 178 180 182 186 191 185 185 220 227 208 204 204 214 216 215 213 212 217 224 234 240 244 246 248 253 258 263 268 273 274 275 278 280
152 154 156 151 142 143 159 175 170 172 176 180 185 185 181 182 203 214 214 213 208 205 212 220 219 219 215 216 223 230 237 242 247 251 254 257 261 265 269 272 277 279 280 282
149 146 142 143 153 168 175 161 150 156 163 176 189 191 189 188 197 210 201 206 210 210 224 229 226 223 217 219 225 233 240 244 248 252 255 259 264 268 271 274 276 280 283 283
147 152 158 166 167 163 157 153 158 166 167 177 194 196 195 194 198 200 200 207 207 211 220 228 223 217 217 223 231 236 242 250 255 255 257 260 264 267 272 276 280 281 282 284
135 135 135 134 142 151 153 157 164 175 180 182 192 197 192 189 191 199 202 206 207 212 218 223 222 220 223 228 233 236 241 247 251 255 258 260 262 265 271 274 279 283 286 289